Showing default

ORBCOMM FM 110, 41182

Orbit data source: Space-Track

ORBCOMM FM 110, 41182 is a payload satellite owned by Orbcomm (US) in LEO that was launched on Tue, 22 Dec 2015 UTC via an FALCON 9 launch vehicle from the Air Force Eastern Test Range (AFETR). Payload-class satellites include a variety of spacecraft equipped with specific instruments for various scientific and technological missions. These include communications satellites like Starlink; space stations such as the ISS; scientific satellites like the Hubble; Earth observation satellites from companies like Planet Labs, Umbra, and HawkEye 360; GPS; miniature CubeSats for education and research; and military/defense satellites.

Loading next visibility...
Identifier
41182, 2015-081D
Orbit
LEO
Country
Flag of USUS / ORB
Related business
Manufacturer
SNC Louisville
Mission
Operational Commercial Communications
Bus & Motor
SN-100A, Unknown motor
Mass
172 kg wet, 158 kg dry
Launch date (UTC)
2015-12-22 (10 years ago)
Launch vehicle
FALCON 9
Launch site
Air Force Eastern Test Range (AFETR)
Object type
Payload
Rocket body
Debris
Shape & HBR
Box + 1 Pan + 1 Ant, 10.3 m
Radar Cross Section
2.222 m², Medium (>0.1 m² and < 1m²)

Expand to show TLE details & history
Last TLE update: 19 hours ago

TLE from 19 hours ago
0 ORBCOMM FM 110
1 41182U 15081D   25308.78639139  .00001011  00000-0  25192-3 0  9990
2 41182  47.0031 342.1881 0001606 149.3244 210.7736 14.58513904524861
Epoch: 2025-11-04T18:52Z
TLE epoch observation values (Epoch: 2025-11-04T18:52:24.216Z)
Latitude
0.00002°
Longitude
14.8188°
Altitude
699.169 km
Speed
7.507 km/s
True Right ascension
22h 48m 45s
True Declination
0° 00' 00"
Sunlit
Object was in full shadow at epoch
Visualization orbit readout
Latitude
Unknown
Longitude
Unknown
Altitude
Unknown
Speed
Unknown
Apparent Right ascension
Unknown
Apparent Declination
Unknown
Sunlit
N/A
Visualization observer readout
Local Sidereal Time
09:30:49
Azimuth
Unknown
Elevation
Unknown
Doppler factor
Unknown
Orbital elements
Apogee altitude
700.348 km
Perigee altitude
698.074 km
Semi-major axis
7,077.348 km
Eccentricity
0.00016
Inclination
47.0031°
RAAN
342.1881°
Arg. of periapsis
149.3244°
True anomaly
210.76419°
Mean anomaly
210.7736°
Eccentric anomaly
210.76889°
Mean motion
3.64533 °/min
Orbital period
98.76 mins
BSTAR
0.00025192
Loading maneuver chart data...
Computing Atmospheric mass density...
Loading historical data...
Loading historical data...
Loading historical data...
Loading historical data...
Loading historical data...
Loading historical data...
Loading historical data...

Documentation

Showing up to 5 results
|